Weather in Samoylovka

Russia / Saratov Oblast     51°10′50″N   43°42′27″E
temp.,
°C
wind,
m/s
gust,
m/s
humid.,
%
clouds,
%
prec.,
mm/h
press.,
hPa
HPBL,
m
14 may, fri
fri1401:00+15ene228595 0.0 101712
04:00+15e3388100 0.0 101824
07:00+16ese24840 0.0 101895
10:00+22ese45605 0.0 1018499
13:00+25se564923 0.0 10171149
16:00+27se6855100 0.0 10161587
19:00+23se4966100 0.0 1015215
22:00+19ese4873100 0.0 1015119
15 may, sat
sat1501:00+19sse6175943 0.0 1015352
04:00+16sse515525 0.0 1016269
07:00+16sse61559100 0.0 1016277
10:00+21sse61550100 0.0 1016570
13:00+26sse71240100 0.0 10161099
16:00+27sse613416 0.0 10151771
19:00+24sse385938 0.0 1014163
22:00+18sse456414 0.0 101554
16 may, sun
sun1601:00+16sse3465100 0.0 101549
04:00+15sse346284 0.0 101551
07:00+16sse366455 0.0 1015115
10:00+22s5848100 0.0 1016445
13:00+26s5840100 0.0 1016937
16:00+27sse4738100 0.0 10151595
19:00+25e2357100 0.0 101429
22:00+20e4562100 0.0 101465
17 may, mon
mon1701:00+18se4136131 0.0 1014213
04:00+17se4749100 0.0 101492
07:00+16ese41058100 0.0 1015155
10:00+22se51149100 0.0 1015422
13:00+26se6838100 0.0 1014798
16:00+27se61044100 0.0 10131153
19:00+24e4863100 0.0 1013142
22:00+20ese51453100 0.0 1013237
18 may, tue
tue1801:00+18ese51346100 0.0 1013195
04:00+16se41051100 0.0 1013129
07:00+16se48605 0.0 1013139
10:00+23se61043100 0.0 1013440
13:00+27se6936100 0.0 10121096
16:00+28se61141100 0.0 10111629
19:00+25sse355682 0.0 101186
22:00+20sse226365 0.0 101115